Location: Brookview Estates
(36.0476°N, 86.6931°W)
Time: 04:34:25
(UTC+00:00)

ARGOS - Pass Details

Date: 30 March 2020
Orbit: 820 x 834 km, 98.5° (Epoch: 29 May)

Event Time Altitude Azimuth Distance (km) Brightness Sun altitude
Exits shadow 00:30:35 - 130° (SE) 3,195 5.7 -5.6°
Reaches altitude 10° 00:32:53 10° 118° (ESE) 2,434 5.0 -6.1°
Maximum altitude 00:37:04 24° 67° (ENE) 1,674 4.3 -6.9°
Drops below altitude 10° 00:41:16 10° 16° (NNE) 2,439 5.6 -7.7°
Sets 00:44:02 0° 2° (N) 3,373 6.4 -8.3°
